Home   Weather   Melsungen   Past weeks

Flag for Germany Past Weather in Melsungen, Hesse, Germany — Yesterday and Last 2 Weeks

Now
29 °F

Overcast.


Feels Like: 29 °F
Forecast: 15 / 25 °F
Wind: 2 mph from Northeast

Location: Fritzlar

Current Time: Jan 17, 2017 at 2:09:28 pm

Latest Report: Jan 17, 2017 at 12:00 pm


Visibility: 7 mi

Pressure: 30.64 "Hg

Humidity: 82%

Dew Point: 24 °F

Location of MelsungenLocation

Past Weather in Melsungen — Graph

°F

Melsungen Temperature Yesterday

Maximum temperature yesterday: 31 °F (at 3:00 pm)
Minimum temperature yesterday: 17 °F (at 12:00 am)
Average temperature yesterday: 26 °F

High & Low Weather Summary for the Past Weeks

 TemperatureHumidityPressure
High40 °F (Jan 4, 2:00 pm)96% (Jan 8, 6:00 pm)30.82 "Hg (Jan 8, 6:00 pm)
Low12 °F (Jan 6, 9:00 pm)54% (Jan 5, 2:00 pm)29.00 "Hg (Jan 13, 3:00 am)
Average31 °F83%30.13 "Hg
* Reported Jan 2 12:00 pm — Jan 17 12:00 pm, Melsungen, Weather by CustomWeather, © 2017

Note: Actual official high and low records may vary slightly from our data, if they occured in-between our weather recording intervals... More about our weather records

Advertising

Melsungen Weather History for the Previous 24 Hours

Scroll right to see more
 ConditionsComfort  
Time TempWeatherWind HumidityBarometerVisibility
12:00 pm
Tue, Jan 17
29 °FOvercast.2 mph82%30.64 "Hg7 mi
11:00 am28 °FSnow flurries. Overcast.1 mph82%30.63 "Hg9 mi
9:00 am27 °FSnow flurries. Overcast.N/A83%30.61 "Hg11 mi
8:00 am27 °FOvercast.1 mph80%30.59 "Hg12 mi
6:00 am28 °FOvercast.1 mph74%30.56 "Hg12 mi
5:00 am28 °FOvercast.2 mph73%30.55 "Hg12 mi
3:00 am28 °FOvercast.1 mph73%30.53 "Hg12 mi
2:00 am28 °FLight snow. Overcast.2 mph74%30.52 "Hg9 mi
12:00 am27 °FLight snow. Overcast.2 mph78%30.51 "Hg9 mi
11:00 pm
Mon, Jan 16
27 °FOvercast.3 mph77%30.50 "Hg12 mi
9:00 pm25 °FOvercast.2 mph81%30.47 "Hg12 mi
8:00 pm24 °FPassing clouds.3 mph83%30.45 "Hg16 mi
6:00 pm27 °FPassing clouds.3 mph77%30.41 "Hg16 mi
5:00 pm28 °FPassing clouds.3 mph75%30.38 "Hg16 mi
3:00 pm31 °FPassing clouds.3 mph68%30.35 "Hg19 mi
2:00 pm30 °FPassing clouds.2 mph67%30.34 "Hg17 mi
Weather by CustomWeather, © 2017

See weather overviewHow to use our weather pages